FW6550 Weather Reports


Display with metric or nautical units.
time (UTC)temp
F
wind
direction
speed
MPH
gust
MPH
rain 1hr
in
rain 24hr
in
rain mn
in
humidity
%
barometer
mb
20260508064535 58 0 0.0 0.0 0.00 0.30 0.00 68 1015.9
20260508063035 58 0 0.0 0.0 0.00 0.30 0.00 68 1016.0
20260508061533 58 0 0.0 0.0 0.00 0.30 0.00 70 1016.0
20260508060032 58 0 0.0 0.0 0.00 0.30 0.00 70 1016.1
20260508054538 58 0 0.0 2.0 0.00 0.31 0.00 68 1016.2
20260508053036 58 0 0.0 1.0 0.00 0.31 0.00 69 1016.1
20260508051536 58 0 0.0 0.0 0.00 0.31 0.00 71 1016.4
20260508050035 59 0 0.0 0.0 0.00 0.31 0.00 73 1016.5
20260508044534 59 0 0.0 0.0 0.00 0.32 0.31 75 1016.1
20260508043038 59 0 0.0 0.0 0.00 0.32 0.31 77 1016.6
20260508041533 60 0 0.0 0.0 0.00 0.32 0.31 78 1016.5
20260508040036 60 0 0.0 0.0 0.00 0.32 0.31 79 1016.7
20260508034543 60 0 0.0 0.0 0.00 0.40 0.31 80 1016.7
20260508033032 61 0 0.0 0.0 0.00 0.40 0.31 80 1016.3
20260508031533 61 0 0.0 0.0 0.00 0.40 0.31 80 1016.2
20260508030042 61 0 0.0 2.0 0.00 0.40 0.31 80 1016.2
20260508024540 62 0 0.0 1.0 0.00 0.63 0.31 80 1016.1
20260508023034 62 0 0.0 1.0 0.00 0.63 0.31 80 1016.3
20260508021534 63 0 0.0 3.0 0.00 0.63 0.31 80 1016.1
20260508020032 63 0 0.0 0.0 0.00 0.63 0.31 80 1015.9
20260508014532 64 0 0.0 0.0 0.00 0.65 0.31 80 1015.6
20260508013031 64 0 0.0 0.0 0.00 0.65 0.31 80 1015.6
20260508011541 65 0 0.0 0.0 0.00 0.65 0.31 78 1015.4
20260508010035 66 0 0.0 0.0 0.00 0.65 0.31 78 1015.4
20260508004532 67 0 0.0 2.0 0.00 0.66 0.31 75 1015.4
20260508003035 68 19 0.0 2.0 0.00 0.66 0.31 74 1015.1
20260508001536 68 0 0.0 3.0 0.00 0.66 0.31 73 1015.0
20260508000033 69 0 0.0 7.0 0.00 0.66 0.31 72 1015.0
20260507234532 70 352 0.0 4.0 0.00 0.67 0.31 71 1014.9
20260507233034 71 0 1.0 3.0 0.00 0.67 0.31 70 1014.6
20260507231547 71 0 0.0 3.0 0.00 0.67 0.31 68 1014.7
20260507230032 72 0 0.0 3.0 0.00 0.67 0.31 68 1014.5
20260507224537 72 318 0.0 3.0 0.00 0.67 0.31 65 1014.5
20260507223034 73 269 0.0 5.0 0.00 0.67 0.31 67 1014.3
20260507221534 73 332 1.0 8.0 0.00 0.67 0.31 65 1014.5
20260507220034 74 0 0.0 5.0 0.00 0.67 0.31 66 1014.2
20260507214534 73 346 0.0 8.0 0.00 0.67 0.31 68 1014.1
20260507213032 72 0 1.0 6.0 0.00 0.67 0.31 69 1014.3
20260507211531 72 342 0.0 4.0 0.00 0.67 0.31 67 1014.2
20260507210035 73 329 1.0 9.0 0.00 0.67 0.31 66 1014.0
20260507204535 72 301 1.0 8.0 0.00 0.67 0.31 70 1014.1
20260507203040 72 0 1.0 7.0 0.00 0.67 0.31 68 1014.3
20260507201538 72 0 0.0 5.0 0.00 0.67 0.31 70 1014.5
20260507200044 73 0 1.0 8.0 0.00 0.67 0.31 67 1014.8
20260507194536 73 305 2.0 8.0 0.00 0.67 0.31 72 1014.7
20260507193035 71 0 3.0 8.0 0.00 0.67 0.31 72 1014.8
20260507191534 72 0 2.0 7.0 0.00 0.67 0.31 72 1015.1
20260507190034 70 46 0.0 5.0 0.00 0.67 0.31 74 1015.0
20260507184534 70 0 0.0 4.0 0.00 0.67 0.31 77 1015.3
20260507183038 68 0 0.0 5.0 0.00 0.67 0.31 77 1015.4
20260507181534 68 0 0.0 5.0 0.00 0.67 0.31 77 1015.4
20260507180040 67 0 1.0 9.0 0.00 0.67 0.31 78 1015.8
20260507174536 67 295 2.0 8.0 0.00 0.67 0.31 77 1015.7
20260507173039 67 352 0.0 4.0 0.00 0.67 0.31 79 1015.7
20260507171553 66 319 0.0 6.0 0.00 0.67 0.31 72 1016.0
20260507170037 64 0 1.0 8.0 0.00 0.67 0.31 69 1016.1
20260507164546 63 352 2.0 6.0 0.00 0.67 0.31 67 1016.4
20260507163038 62 0 1.0 5.0 0.00 0.67 0.31 43 1016.4
20260507161542 61 323 0.0 5.0 0.00 0.67 0.31 36 1016.3
20260507160038 60 9 1.0 7.0 0.00 0.67 0.31 32 1015.9
20260507154539 60 0 0.0 4.0 0.00 0.67 0.31 28 1015.8
20260507153039 60 313 1.0 5.0 0.00 0.67 0.31 26 1015.7
20260507151539 60 0 1.0 5.0 0.00 0.67 0.31 27 1015.8
20260507150034 61 0 0.0 4.0 0.00 0.67 0.31 20 1015.7
20260507144534 60 0 0.0 6.0 0.00 0.67 0.31 18 1015.6
20260507143040 61 0 0.0 3.0 0.00 0.67 0.31 15 1015.4
20260507141537 60 0 0.0 2.0 0.00 0.67 0.31 13 1015.1
20260507140035 60 0 0.0 2.0 0.00 0.67 0.31 11 1015.2
20260507134545 60 0 0.0 5.0 0.00 0.67 0.31 13 1015.2
20260507133034 60 0 0.0 3.0 0.00 0.67 0.31 12 1014.8
20260507131538 60 0 0.0 4.0 0.00 0.67 0.31 11 1014.9
20260507130039 59 0 0.0 3.0 0.00 0.67 0.31 12 1014.7
20260507124537 59 0 0.0 3.0 0.08 0.67 0.31 13 1014.4
20260507123037 59 0 1.0 3.0 0.08 0.67 0.31 13 1014.2
20260507121533 59 0 0.0 2.0 0.08 0.67 0.31 12 1014.0
20260507120032 59 0 0.0 3.0 0.08 0.67 0.31 13 1013.8
20260507114535 59 0 1.0 3.0 0.00 0.58 0.23 13 1013.8
20260507113033 59 0 0.0 3.0 0.00 0.58 0.23 13 1013.1
20260507111537 59 29 0.0 2.0 0.00 0.58 0.23 13 1012.9
20260507110047 59 0 0.0 2.0 0.00 0.58 0.23 13 1012.7
20260507104533 59 0 0.0 5.0 0.00 0.58 0.23 14 1012.5
20260507103033 59 294 0.0 6.0 0.00 0.58 0.23 15 1013.0
20260507101540 60 328 1.0 5.0 0.00 0.58 0.23 14 1013.0
20260507100039 60 22 1.0 8.0 0.00 0.58 0.23 14 1012.1
20260507094538 61 347 2.0 8.0 0.00 0.58 0.23 13 1011.9
20260507093036 62 352 1.0 6.0 0.00 0.58 0.23 11 1011.4
20260507091538 63 0 2.0 8.0 0.01 0.58 0.23 10 1011.8
20260507090039 64 329 0.0 5.0 0.03 0.58 0.23 9 1011.2
20260507084538 64 313 2.0 8.0 0.05 0.58 0.23 8 1011.4
20260507083038 65 328 1.0 4.0 0.05 0.58 0.23 7 1011.3
20260507081532 65 0 0.0 5.0 0.04 0.58 0.22 6 1011.1
20260507080036 66 313 0.0 3.0 0.03 0.56 0.20 6 1011.3
20260507074543 66 0 0.0 0.0 0.04 0.54 0.18 6 1011.1
20260507073032 66 0 0.0 2.0 0.14 0.54 0.18 7 1011.5
20260507071533 66 0 0.0 8.0 0.17 0.54 0.18 7 1011.1
20260507070036 66 338 0.0 3.0 0.16 0.52 0.17 7 1011.5